Juergen K — PBKV — position and weather

sailwx.info

Track history (hours):
 
Tides and Currents Weather Stations Pressure Air Temp Water Temp Dewpoint Dewpoint Depression Visibility Wind Speed Wind Dir Waves Ship Positions

Juergen K

Last reported at 2014-Oct-25 16:05 UTC. Time now 2014-Oct-26 05:11 UTC.
Position N 38°24' W 010°01'.

Length 89 m; draft 5.6 m.

Type: Cargo ship. MMSI: 244329000.

Date/timePositionNaut miles runAvg speedWind from/ knotsBaromVisibWave heightAir tempDewpointWater temp
2014-Oct-25 16:05N 38°24' W 010°01'6 9.5
2014-Oct-25 15:29N 38°29' W 010°02'9 9.6
2014-Oct-25 14:33N 38°38' W 010°05'9 9.4
2014-Oct-25 13:33N 38°47' W 010°06'  
2014-Oct-23 00:33N 47°48' W 006°42'8 8.3
2014-Oct-22 23:33N 47°55' W 006°37'75 9.4
2014-Oct-22 15:33N 48°59' W 005°37'105 8.7
2014-Oct-22 03:28N 50°11' W 003°39'8 8.3
2014-Oct-22 02:33N 50°13' W 003°27'10 9.5
2014-Oct-22 01:33N 50°16' W 003°13'1010.2
2014-Oct-22 00:33N 50°19' W 002°58'32 9.4
2014-Oct-21 21:08N 50°28' W 002°10'10 6.6
2014-Oct-21 19:33N 50°33' W 001°55'7 6.8
2014-Oct-21 18:34N 50°40' W 001°56'3 3.2
2014-Oct-21 17:29N 50°43' W 001°59'0 0.0
2014-Oct-21 16:29N 50°43' W 001°59'0 0.0
2014-Oct-21 15:29N 50°43' W 001°59'0 0.0
2014-Oct-21 14:32N 50°43' W 001°59'0 0.0
2014-Oct-21 13:20N 50°43' W 001°59'0 0.0
2014-Oct-21 12:32N 50°43' W 001°59'0 0.0
2014-Oct-21 11:32N 50°43' W 001°59'0 0.0
2014-Oct-21 10:32N 50°43' W 001°59'0 0.0
2014-Oct-21 09:32N 50°43' W 001°59'0 0.0
2014-Oct-21 08:22N 50°43' W 001°59'0 0.0
2014-Oct-20 21:10N 50°43' W 001°59'0 0.0
2014-Oct-20 20:28N 50°43' W 001°59'0 0.0
2014-Oct-20 19:28N 50°43' W 001°59'0 0.0
2014-Oct-20 18:28N 50°43' W 001°59'0 0.0
2014-Oct-20 17:28N 50°43' W 001°59'0 0.0
2014-Oct-20 16:28N 50°43' W 001°59'0 0.0
2014-Oct-20 11:28N 50°43' W 001°59'0 0.0
2014-Oct-20 10:28N 50°43' W 001°59'0 0.0
2014-Oct-20 09:28N 50°43' W 001°59'0 0.0
2014-Oct-20 05:28N 50°43' W 001°59'0 0.0
2014-Oct-19 21:04N 50°43' W 001°59'0 0.0
2014-Oct-19 20:28N 50°43' W 001°59'0 0.0
2014-Oct-19 19:28N 50°43' W 001°59'0 0.0
2014-Oct-19 18:28N 50°43' W 001°59'0 0.0
2014-Oct-19 17:28N 50°43' W 001°59'0 0.0
2014-Oct-19 16:22N 50°43' W 001°59'0 0.0
2014-Oct-19 15:28N 50°43' W 001°59'0 0.0
2014-Oct-19 14:28N 50°43' W 001°59'0 0.0
2014-Oct-19 13:28N 50°43' W 001°59'0 0.0
2014-Oct-19 12:28N 50°43' W 001°59'0 0.0
2014-Oct-19 11:28N 50°43' W 001°59'0 0.0
2014-Oct-19 10:28N 50°43' W 001°59'0 0.0
2014-Oct-19 09:34N 50°43' W 001°59'5 5.3
2014-Oct-19 08:33N 50°39' W 001°54'5 4.7
2014-Oct-19 07:34N 50°37' W 001°47'21 6.7
2014-Oct-19 04:23N 50°30' W 001°16'  
Track history (hours):
 
Tides and Currents Weather Stations Pressure Air Temp Water Temp Dewpoint Dewpoint Depression Visibility Wind Speed Wind Dir Waves Ship Positions

Juergen K

Last reported at 2014-Oct-25 16:05 UTC. Time now 2014-Oct-26 05:11 UTC.
Position N 38°24' W 010°01'.

Length 89 m; draft 5.6 m.

Type: Cargo ship. MMSI: 244329000.

Date/timePositionNaut miles runAvg speedWind from/ knotsBaromVisibWave heightAir tempDewpointWater temp
2014-Oct-25 16:05N 38°24' W 010°01'6 9.5
2014-Oct-25 15:29N 38°29' W 010°02'9 9.6
2014-Oct-25 14:33N 38°38' W 010°05'9 9.4
2014-Oct-25 13:33N 38°47' W 010°06'  
2014-Oct-23 00:33N 47°48' W 006°42'8 8.3
2014-Oct-22 23:33N 47°55' W 006°37'75 9.4
2014-Oct-22 15:33N 48°59' W 005°37'105 8.7
2014-Oct-22 03:28N 50°11' W 003°39'8 8.3
2014-Oct-22 02:33N 50°13' W 003°27'10 9.5
2014-Oct-22 01:33N 50°16' W 003°13'1010.2
2014-Oct-22 00:33N 50°19' W 002°58'32 9.4
2014-Oct-21 21:08N 50°28' W 002°10'10 6.6
2014-Oct-21 19:33N 50°33' W 001°55'7 6.8
2014-Oct-21 18:34N 50°40' W 001°56'3 3.2
2014-Oct-21 17:29N 50°43' W 001°59'0 0.0
2014-Oct-21 16:29N 50°43' W 001°59'0 0.0
2014-Oct-21 15:29N 50°43' W 001°59'0 0.0
2014-Oct-21 14:32N 50°43' W 001°59'0 0.0
2014-Oct-21 13:20N 50°43' W 001°59'0 0.0
2014-Oct-21 12:32N 50°43' W 001°59'0 0.0
2014-Oct-21 11:32N 50°43' W 001°59'0 0.0
2014-Oct-21 10:32N 50°43' W 001°59'0 0.0
2014-Oct-21 09:32N 50°43' W 001°59'0 0.0
2014-Oct-21 08:22N 50°43' W 001°59'0 0.0
2014-Oct-20 21:10N 50°43' W 001°59'0 0.0
2014-Oct-20 20:28N 50°43' W 001°59'0 0.0
2014-Oct-20 19:28N 50°43' W 001°59'0 0.0
2014-Oct-20 18:28N 50°43' W 001°59'0 0.0
2014-Oct-20 17:28N 50°43' W 001°59'0 0.0
2014-Oct-20 16:28N 50°43' W 001°59'0 0.0
2014-Oct-20 11:28N 50°43' W 001°59'0 0.0
2014-Oct-20 10:28N 50°43' W 001°59'0 0.0
2014-Oct-20 09:28N 50°43' W 001°59'0 0.0
2014-Oct-20 05:28N 50°43' W 001°59'0 0.0
2014-Oct-19 21:04N 50°43' W 001°59'0 0.0
2014-Oct-19 20:28N 50°43' W 001°59'0 0.0
2014-Oct-19 19:28N 50°43' W 001°59'0 0.0
2014-Oct-19 18:28N 50°43' W 001°59'0 0.0
2014-Oct-19 17:28N 50°43' W 001°59'0 0.0
2014-Oct-19 16:22N 50°43' W 001°59'0 0.0
2014-Oct-19 15:28N 50°43' W 001°59'0 0.0
2014-Oct-19 14:28N 50°43' W 001°59'0 0.0
2014-Oct-19 13:28N 50°43' W 001°59'0 0.0
2014-Oct-19 12:28N 50°43' W 001°59'0 0.0
2014-Oct-19 11:28N 50°43' W 001°59'0 0.0
2014-Oct-19 10:28N 50°43' W 001°59'0 0.0
2014-Oct-19 09:34N 50°43' W 001°59'5 5.3
2014-Oct-19 08:33N 50°39' W 001°54'5 4.7
2014-Oct-19 07:34N 50°37' W 001°47'21 6.7
2014-Oct-19 04:23N 50°30' W 001°16'  

Dump ship's entire track history